Change the Weather History Date:

Monday, October 15, 2012

  Actual Average Record
Temperature  
Mean Temperature 56 °F 49 °F  
Max Temperature 65 °F 57 °F 78 °F (1956)
Min Temperature 47 °F 40 °F 28 °F (1996)
Degree Days  
Heating Degree Days 9 16  
Month to date heating degree days 218 210  
Since 1 July heating degree days 432 467  
Cooling Degree Days 0 0  
Month to date cooling degree days 1 0  
Year to date cooling degree days 548 379  
Growing Degree Days 6 (Base 50)    
Moisture  
Dew Point 47 °F    
Average Humidity 67    
Maximum Humidity 86    
Minimum Humidity 48    
Precipitation  
Precipitation T in 0.11 in 3.38 in (1955)
Month to date precipitation 0.79 1.67  
Year to date precipitation 30.09 31.51  
Snow  
Snow 0.00 in 0.10 in T in (1995)
Month to date snowfall T 0.2  
Since 1 July snowfall T 0.2  
Since 1 September snowfall T 0.2  
Snow Depth 0.00 in    
Sea Level Pressure  
Sea Level Pressure 29.69 in    
Wind  
Wind Speed 11 mph (WSW)    
Max Wind Speed 21 mph    
Max Gust Speed 29 mph    
Visibility 10 miles    
Events      
T = Trace of Precipitation, MM = Missing Value Source: NWS Daily Summary

Daily Weather History Graph

Daily Weather History Graph

Search for Another Location

Airport or City:

Trip Planner

Search our weather history database for the weather conditions in past years. The results will help you decide how hot, cold, wet, or windy it might be!

Date:

Astronomy

Oct. 15, 2012 Rise Set
Actual Time 7:17 AM EDT 6:21 PM EDT
Civil Twilight 6:48 AM EDT 6:49 PM EDT
Nautical Twilight 6:16 AM EDT 7:22 PM EDT
Astronomical Twilight 5:43 AM EDT 7:54 PM EDT
Moon 7:25 AM EDT (10/15) 6:17 PM EDT (10/15)
Length of Visible Light 12h 00m
Length of Day
11h 04m
New Moon, 0% of the Moon is Illuminated
Oct 15
New Moon
Oct 21
First Quarter
Oct 29
Full
Nov 6
Last Quarter
Nov 13
New

Hourly Weather History & Observations

Time (EDT) Temp. Dew Point Humidity Pressure Visibility Wind Dir Wind Speed Gust Speed Precip Events Conditions
12:53 AM 59.0 °F 48.0 °F 67% 29.78 in 10.0 mi South 9.2 mph - N/A   Partly Cloudy
1:53 AM 57.9 °F 48.9 °F 72% 29.76 in 10.0 mi South 8.1 mph - N/A   Scattered Clouds
2:53 AM 59.0 °F 48.9 °F 69% 29.71 in 10.0 mi South 12.7 mph - 0.00 in   Overcast
3:53 AM 59.0 °F 50.0 °F 72% 29.70 in 10.0 mi South 13.8 mph 19.6 mph N/A   Overcast
4:53 AM 57.9 °F 50.0 °F 75% 29.68 in 10.0 mi South 9.2 mph - N/A   Mostly Cloudy
5:53 AM 57.9 °F 51.1 °F 78% 29.68 in 10.0 mi South 5.8 mph - N/A   Clear
6:53 AM 57.0 °F 51.1 °F 81% 29.66 in 10.0 mi South 12.7 mph 19.6 mph N/A   Clear
7:53 AM 57.0 °F 52.0 °F 83% 29.66 in 10.0 mi South 11.5 mph 19.6 mph N/A   Clear
8:36 AM 57.2 °F 51.8 °F 82% 29.67 in 10.0 mi SSW 11.5 mph - N/A   Mostly Cloudy
8:53 AM 57.9 °F 53.1 °F 84% 29.67 in 10.0 mi South 8.1 mph - N/A   Overcast
9:53 AM 59.0 °F 54.0 °F 83% 29.67 in 10.0 mi SSW 4.6 mph 16.1 mph 0.00 in   Overcast
10:53 AM 63.0 °F 54.0 °F 72% 29.66 in 10.0 mi SSW 13.8 mph 20.7 mph N/A   Overcast
11:38 AM 62.6 °F 51.8 °F 68% 29.67 in 10.0 mi SSW 15.0 mph 24.2 mph N/A   Overcast
11:53 AM 63.0 °F 52.0 °F 67% 29.65 in 10.0 mi SW 13.8 mph 21.9 mph N/A   Mostly Cloudy
12:53 PM 64.0 °F 51.1 °F 63% 29.64 in 10.0 mi SW 10.4 mph 18.4 mph N/A   Partly Cloudy
1:53 PM 64.0 °F 46.0 °F 52% 29.63 in 10.0 mi WSW 16.1 mph 20.7 mph N/A   Scattered Clouds
2:53 PM 63.0 °F 44.1 °F 50% 29.64 in 10.0 mi West 11.5 mph 24.2 mph N/A   Scattered Clouds
3:53 PM 62.1 °F 43.0 °F 50% 29.62 in 10.0 mi West 13.8 mph 21.9 mph N/A   Partly Cloudy
4:53 PM 60.1 °F 41.0 °F 49% 29.65 in 10.0 mi WNW 13.8 mph 21.9 mph N/A   Overcast
5:53 PM 57.9 °F 41.0 °F 53% 29.65 in 10.0 mi West 8.1 mph - N/A   Mostly Cloudy
6:53 PM 57.0 °F 39.9 °F 53% 29.66 in 10.0 mi WNW 5.8 mph - N/A   Overcast
7:53 PM 52.0 °F 43.0 °F 71% 29.70 in 10.0 mi NNW 11.5 mph - N/A   Overcast
8:53 PM 51.1 °F 43.0 °F 74% 29.72 in 10.0 mi NW 8.1 mph - N/A   Overcast
9:53 PM 48.9 °F 39.9 °F 71% 29.73 in 10.0 mi WNW 10.4 mph 17.3 mph N/A   Scattered Clouds
10:53 PM 48.9 °F 39.0 °F 69% 29.73 in 10.0 mi West 6.9 mph - N/A   Overcast
11:22 PM 48.2 °F 39.2 °F 71% 29.74 in 10.0 mi WNW 8.1 mph 16.1 mph N/A   Overcast
11:36 PM 48.2 °F 37.4 °F 66% 29.74 in 10.0 mi NW 10.4 mph 17.3 mph N/A   Overcast
11:53 PM 48.0 °F 37.9 °F 68% 29.73 in 10.0 mi NW 12.7 mph 21.9 mph N/A   Overcast